When you browse on this site, cookies collect data to enhance your experience and personalize the content and advertising you see.
Visit our Privacy Policy to learn more. By continuing to use the site, you agree to this use of cookies and data.
  • en Suisse
  • Liste des pays
  • À 7 jours
  • Température de l'eau
  • Carte météo
  • Widgets météo
  • user-avatar
    Se connecter

    Météo par heure à Nice

    Ce jour, 4 Avril, Samedi

    Heure Température Précipitation Vent Pression Humidité
    00:00 +10°C° 0 mm 2 m/s 759 mmHg 66%
    01:00 +10°C° 0 mm 2 m/s 759 mmHg 65%
    02:00 +10°C° 0 mm 2 m/s 760 mmHg 64%
    03:00 +10°C° 0 mm 2 m/s 760 mmHg 63%
    04:00 +10°C° 0 mm 2 m/s 760 mmHg 63%
    05:00 +10°C° 0 mm 3 m/s 760 mmHg 62%
    06:00 +10°C° 0 mm 3 m/s 761 mmHg 61%
    07:00 +13°C° 0 mm 2 m/s 761 mmHg 55%
    08:00 +15°C° 0 mm 2 m/s 761 mmHg 49%
    09:00 +17°C° 0 mm 2 m/s 761 mmHg 43%
    10:00 +18°C° 0 mm 2 m/s 762 mmHg 41%
    11:00 +18°C° 0 mm 2 m/s 762 mmHg 40%
    12:00 +19°C° 0 mm 2 m/s 762 mmHg 38%
    13:00 +19°C° 0 mm 2 m/s 762 mmHg 38%
    14:00 +19°C° 0 mm 2 m/s 762 mmHg 38%
    15:00 +20°C° 0 mm 1 m/s 761 mmHg 38%
    16:00 +18°C° 0 mm 1 m/s 762 mmHg 42%
    17:00 +16°C° 0 mm 1 m/s 762 mmHg 46%
    18:00 +15°C° 0 mm 1 m/s 762 mmHg 50%
    19:00 +14°C° 0 mm 1 m/s 763 mmHg 53%
    20:00 +14°C° 0 mm 1 m/s 763 mmHg 56%
    21:00 +13°C° 0 mm 2 m/s 764 mmHg 60%
    22:00 +13°C° 0 mm 2 m/s 764 mmHg 61%
    23:00 +13°C° 0 mm 2 m/s 764 mmHg 62%

    Demain, 5 Avril, Dimanche

    Heure Température Précipitation Vent Pression Humidité
    00:00 +13°C° 0 mm 2 m/s 765 mmHg 63%
    01:00 +11°C° 0 mm 3 m/s 764 mmHg 65%
    02:00 +11°C° 0 mm 3 m/s 764 mmHg 66%
    03:00 +11°C° 0 mm 3 m/s 764 mmHg 67%
    04:00 +11°C° 0 mm 3 m/s 764 mmHg 67%
    05:00 +11°C° 0 mm 3 m/s 764 mmHg 66%
    06:00 +11°C° 0 mm 3 m/s 764 mmHg 65%
    07:00 +13°C° 0 mm 3 m/s 764 mmHg 59%
    08:00 +16°C° 0 mm 3 m/s 764 mmHg 53%
    09:00 +18°C° 0 mm 3 m/s 765 mmHg 46%
    10:00 +18°C° 0 mm 3 m/s 764 mmHg 45%
    11:00 +19°C° 0 mm 3 m/s 764 mmHg 44%
    12:00 +20°C° 0 mm 3 m/s 764 mmHg 42%
    13:00 +20°C° 0 mm 3 m/s 764 mmHg 44%
    14:00 +20°C° 0 mm 3 m/s 763 mmHg 46%
    15:00 +19°C° 0 mm 2 m/s 763 mmHg 48%
    16:00 +18°C° 0 mm 2 m/s 763 mmHg 53%
    17:00 +17°C° 0 mm 2 m/s 763 mmHg 59%
    18:00 +15°C° 0 mm 2 m/s 763 mmHg 64%
    19:00 +14°C° 0 mm 3 m/s 764 mmHg 65%
    20:00 +13°C° 0 mm 3 m/s 764 mmHg 66%
    21:00 +12°C° 0 mm 4 m/s 765 mmHg 66%
    22:00 +12°C° 0 mm 4 m/s 765 mmHg 67%
    23:00 +12°C° 0 mm 4 m/s 765 mmHg 67%

    Après-demain, 6 Avril, Lundi

    Heure Température Précipitation Vent Pression Humidité
    00:00 +11°C° 0 mm 4 m/s 765 mmHg 67%
    01:00 +11°C° 0 mm 4 m/s 765 mmHg 67%
    02:00 +11°C° 0 mm 4 m/s 765 mmHg 66%
    03:00 +11°C° 0 mm 4 m/s 765 mmHg 66%
    04:00 +11°C° 0 mm 4 m/s 765 mmHg 64%
    05:00 +11°C° 0 mm 4 m/s 765 mmHg 63%
    06:00 +11°C° 0 mm 4 m/s 765 mmHg 62%
    07:00 +13°C° 0 mm 3 m/s 765 mmHg 54%
    08:00 +17°C° 0 mm 2 m/s 765 mmHg 47%
    09:00 +19°C° 0 mm 2 m/s 765 mmHg 40%
    10:00 +19°C° 0 mm 2 m/s 765 mmHg 40%
    11:00 +20°C° 0 mm 3 m/s 765 mmHg 39%
    12:00 +21°C° 0 mm 3 m/s 765 mmHg 39%
    13:00 +21°C° 0 mm 3 m/s 765 mmHg 41%
    14:00 +20°C° 0 mm 3 m/s 765 mmHg 44%
    15:00 +20°C° 0 mm 3 m/s 765 mmHg 47%
    16:00 +18°C° 0 mm 2 m/s 765 mmHg 52%
    17:00 +17°C° 0 mm 2 m/s 765 mmHg 57%
    18:00 +16°C° 0 mm 2 m/s 765 mmHg 61%
    19:00 +15°C° 0 mm 2 m/s 766 mmHg 63%
    20:00 +15°C° 0 mm 2 m/s 767 mmHg 64%
    21:00 +14°C° 0 mm 2 m/s 767 mmHg 66%
    22:00 +14°C° 0 mm 2 m/s 767 mmHg 66%
    23:00 +14°C° 0 mm 2 m/s 767 mmHg 66%

    7 Avril, Mardi

    Heure Température Précipitation Vent Pression Humidité
    00:00 +13°C° 0 mm 2 m/s 767 mmHg 67%
    01:00 +13°C° 0 mm 2 m/s 767 mmHg 66%
    02:00 +13°C° 0 mm 2 m/s 767 mmHg 65%
    03:00 +13°C° 0 mm 2 m/s 767 mmHg 64%
    04:00 +13°C° 0 mm 2 m/s 767 mmHg 61%
    05:00 +13°C° 0 mm 2 m/s 767 mmHg 59%
    06:00 +13°C° 0 mm 2 m/s 767 mmHg 57%
    07:00 +16°C° 0 mm 2 m/s 767 mmHg 51%
    08:00 +19°C° 0 mm 1 m/s 767 mmHg 44%
    09:00 +21°C° 0 mm 1 m/s 767 mmHg 38%
    10:00 +20°C° 0 mm 2 m/s 767 mmHg 39%
    11:00 +21°C° 0 mm 2 m/s 767 mmHg 39%
    12:00 +21°C° 0 mm 2 m/s 767 mmHg 39%
    13:00 +21°C° 0 mm 2 m/s 767 mmHg 41%
    14:00 +21°C° 0 mm 2 m/s 766 mmHg 42%
    15:00 +22°C° 0 mm 1 m/s 766 mmHg 43%
    16:00 +20°C° 0 mm 1 m/s 766 mmHg 47%
    17:00 +19°C° 0 mm 1 m/s 766 mmHg 52%
    18:00 +18°C° 0 mm 1 m/s 766 mmHg 56%
    19:00 +16°C° 0 mm 1 m/s 767 mmHg 58%
    20:00 +16°C° 0 mm 2 m/s 767 mmHg 60%
    21:00 +15°C° 0 mm 2 m/s 767 mmHg 62%
    22:00 +15°C° 0 mm 2 m/s 768 mmHg 62%
    23:00 +15°C° 0 mm 2 m/s 768 mmHg 62%

    8 Avril, Mercredi

    Heure Température Précipitation Vent Pression Humidité
    00:00 +14°C° 0 mm 2 m/s 768 mmHg 63%
    01:00 +14°C° 0 mm 2 m/s 768 mmHg 62%
    02:00 +14°C° 0 mm 2 m/s 767 mmHg 62%
    03:00 +13°C° 0 mm 2 m/s 767 mmHg 62%
    04:00 +13°C° 0 mm 2 m/s 767 mmHg 59%
    05:00 +14°C° 0 mm 2 m/s 767 mmHg 57%
    06:00 +14°C° 0 mm 2 m/s 767 mmHg 54%
    07:00 +16°C° 0 mm 2 m/s 767 mmHg 50%
    08:00 +18°C° 0 mm 2 m/s 767 mmHg 45%
    09:00 +20°C° 0 mm 2 m/s 767 mmHg 40%
    10:00 +20°C° 0 mm 2 m/s 767 mmHg 42%
    11:00 +21°C° 0 mm 2 m/s 767 mmHg 43%
    12:00 +21°C° 0 mm 2 m/s 766 mmHg 45%
    13:00 +21°C° 0 mm 2 m/s 766 mmHg 46%
    14:00 +21°C° 0 mm 2 m/s 766 mmHg 46%
    15:00 +20°C° 0 mm 2 m/s 766 mmHg 47%
    16:00 +19°C° 0 mm 2 m/s 766 mmHg 50%
    17:00 +18°C° 0 mm 2 m/s 766 mmHg 53%
    18:00 +17°C° 0 mm 2 m/s 766 mmHg 56%
    19:00 +17°C° 0 mm 2 m/s 766 mmHg 57%
    20:00 +16°C° 0 mm 1 m/s 766 mmHg 57%
    21:00 +16°C° 0 mm 1 m/s 767 mmHg 58%
    22:00 +15°C° 0 mm 1 m/s 767 mmHg 59%
    23:00 +15°C° 0 mm 1 m/s 767 mmHg 60%

    9 Avril, Jeudi

    Heure Température Précipitation Vent Pression Humidité
    00:00 +14°C° 0 mm 1 m/s 767 mmHg 61%
    01:00 +14°C° 0 mm 2 m/s 767 mmHg 60%
    02:00 +14°C° 0 mm 2 m/s 766 mmHg 60%
    03:00 +13°C° 0 mm 2 m/s 766 mmHg 59%
    04:00 +13°C° 0 mm 2 m/s 766 mmHg 58%
    05:00 +14°C° 0 mm 2 m/s 766 mmHg 56%
    06:00 +14°C° 0 mm 2 m/s 766 mmHg 54%
    07:00 +16°C° 0 mm 2 m/s 766 mmHg 49%
    08:00 +18°C° 0 mm 2 m/s 766 mmHg 44%
    09:00 +21°C° 0 mm 1 m/s 766 mmHg 38%
    10:00 +20°C° 0 mm 2 m/s 766 mmHg 38%
    11:00 +20°C° 0 mm 2 m/s 766 mmHg 38%
    12:00 +21°C° 0 mm 2 m/s 766 mmHg 38%
    13:00 +21°C° 0 mm 2 m/s 765 mmHg 39%
    14:00 +20°C° 0 mm 2 m/s 765 mmHg 40%
    15:00 +20°C° 0 mm 2 m/s 765 mmHg 41%
    16:00 +19°C° 0 mm 2 m/s 765 mmHg 44%
    17:00 +19°C° 0 mm 1 m/s 765 mmHg 48%
    18:00 +18°C° 0 mm 1 m/s 765 mmHg 51%
    19:00 +16°C° 0 mm 1 m/s 765 mmHg 52%
    20:00 +16°C° 0 mm 1 m/s 765 mmHg 54%
    21:00 +15°C° 0 mm 1 m/s 766 mmHg 56%
    22:00 +15°C° 0 mm 1 m/s 766 mmHg 56%
    23:00 +15°C° 0 mm 1 m/s 766 mmHg 57%
    Voir plus